Time,TemperatureF,DewpointF,PressureIn,WindDirection,WindDirectionDegrees,WindSpeedMPH,WindSpeedGustMPH,Humidity,HourlyPrecipIn,Conditions,Clouds,dailyrainin,SoftwareType,DateUTC
2013-10-12 00:10:00,55.2,54.0,30.03,NNE,29,0.0,0.0,94,0.00,,,0.00,weatherlink.com 1.10,2013-10-12 04:10:00,
2013-10-12 00:25:00,54.9,54.0,30.03,NNE,29,0.0,0.0,95,0.00,,,0.00,weatherlink.com 1.10,2013-10-12 04:25:00,
2013-10-12 00:40:00,54.7,53.0,30.03,NNE,29,0.0,0.0,95,0.00,,,0.00,weatherlink.com 1.10,2013-10-12 04:40:00,
2013-10-12 00:55:00,54.5,53.0,30.03,NNE,28,0.0,0.0,95,0.00,,,0.00,weatherlink.com 1.10,2013-10-12 04:55:00,
2013-10-12 01:10:00,54.2,53.0,30.03,NNE,29,0.0,0.0,95,0.00,,,0.00,weatherlink.com 1.10,2013-10-12 05:10:00,
2013-10-12 01:25:00,53.8,53.0,30.03,NNE,28,0.0,0.0,96,0.00,,,0.00,weatherlink.com 1.10,2013-10-12 05:25:00,
2013-10-12 01:40:00,53.6,53.0,30.03,NNE,29,0.0,0.0,96,0.00,,,0.00,weatherlink.com 1.10,2013-10-12 05:40:00,
2013-10-12 01:55:00,53.4,52.0,30.04,NNE,29,0.0,0.0,96,0.00,,,0.00,weatherlink.com 1.10,2013-10-12 05:55:00,
2013-10-12 02:10:00,53.2,52.0,30.04,NNE,28,0.0,0.0,96,0.00,,,0.00,weatherlink.com 1.10,2013-10-12 06:10:00,
2013-10-12 02:25:00,52.8,52.0,30.04,NNE,29,0.0,0.0,97,0.00,,,0.00,weatherlink.com 1.10,2013-10-12 06:25:00,
2013-10-12 02:40:00,52.8,52.0,30.04,NNE,29,0.0,0.0,97,0.00,,,0.00,weatherlink.com 1.10,2013-10-12 06:40:00,
2013-10-12 02:55:00,52.6,52.0,30.04,NNE,28,0.0,0.0,97,0.00,,,0.00,weatherlink.com 1.10,2013-10-12 06:55:00,
2013-10-12 03:13:00,52.3,52.0,30.05,NNE,29,0.0,0.0,97,0.00,,,0.00,weatherlink.com 1.10,2013-10-12 07:13:00,
2013-10-12 03:26:00,52.2,51.0,30.05,NNE,29,0.0,0.0,97,0.00,,,0.00,weatherlink.com 1.10,2013-10-12 07:26:00,
2013-10-12 03:41:00,52.0,51.0,30.05,NNE,29,0.0,0.0,97,0.00,,,0.00,weatherlink.com 1.10,2013-10-12 07:41:00,
2013-10-12 03:56:00,51.8,51.0,30.05,NNE,29,0.0,0.0,97,0.00,,,0.00,weatherlink.com 1.10,2013-10-12 07:56:00,
2013-10-12 04:11:00,51.5,51.0,30.05,NNE,29,0.0,0.0,97,0.00,,,0.00,weatherlink.com 1.10,2013-10-12 08:11:00,
2013-10-12 04:26:00,51.4,51.0,30.05,NNE,28,0.0,0.0,97,0.00,,,0.00,weatherlink.com 1.10,2013-10-12 08:26:00,
2013-10-12 04:41:00,51.3,51.0,30.05,NNE,28,0.0,0.0,98,0.00,,,0.00,weatherlink.com 1.10,2013-10-12 08:41:00,
2013-10-12 04:56:00,51.1,51.0,30.05,NNE,29,0.0,0.0,98,0.00,,,0.00,weatherlink.com 1.10,2013-10-12 08:56:00,
2013-10-12 05:11:00,51.0,51.0,30.05,NNE,28,0.0,0.0,98,0.00,,,0.00,weatherlink.com 1.10,2013-10-12 09:11:00,
2013-10-12 05:26:00,50.8,50.0,30.05,NNE,28,0.0,0.0,98,0.00,,,0.00,weatherlink.com 1.10,2013-10-12 09:26:00,
2013-10-12 05:41:00,50.6,50.0,30.05,NNE,29,0.0,0.0,98,0.00,,,0.00,weatherlink.com 1.10,2013-10-12 09:41:00,
2013-10-12 05:56:00,50.5,50.0,30.05,NNE,29,0.0,0.0,98,0.00,,,0.00,weatherlink.com 1.10,2013-10-12 09:56:00,
2013-10-12 06:11:00,50.4,50.0,30.05,NNE,29,0.0,0.0,98,0.00,,,0.00,weatherlink.com 1.10,2013-10-12 10:11:00,
2013-10-12 06:26:00,50.3,50.0,30.06,NNE,28,0.0,0.0,98,0.00,,,0.00,weatherlink.com 1.10,2013-10-12 10:26:00,
2013-10-12 06:41:00,50.2,50.0,30.07,NNE,29,0.0,0.0,98,0.00,,,0.00,weatherlink.com 1.10,2013-10-12 10:41:00,
2013-10-12 06:56:00,50.1,50.0,30.07,NNE,29,0.0,0.0,98,0.00,,,0.00,weatherlink.com 1.10,2013-10-12 10:56:00,
2013-10-12 07:11:00,50.0,50.0,30.07,NNE,29,0.0,0.0,98,0.00,,,0.00,weatherlink.com 1.10,2013-10-12 11:11:00,
2013-10-12 07:26:00,49.7,49.0,30.07,NNE,28,0.0,0.0,98,0.00,,,0.00,weatherlink.com 1.10,2013-10-12 11:26:00,
2013-10-12 07:41:00,49.7,49.0,30.08,NNE,29,0.0,0.0,98,0.00,,,0.00,weatherlink.com 1.10,2013-10-12 11:41:00,
2013-10-12 07:56:00,49.6,49.0,30.08,NNE,29,0.0,0.0,98,0.00,,,0.00,weatherlink.com 1.10,2013-10-12 11:56:00,
2013-10-12 08:11:00,49.9,49.0,30.08,NNE,29,0.0,0.0,98,0.00,,,0.00,weatherlink.com 1.10,2013-10-12 12:11:00,
2013-10-12 08:26:00,49.9,49.0,30.09,NNE,28,0.0,0.0,98,0.00,,,0.00,weatherlink.com 1.10,2013-10-12 12:26:00,
2013-10-12 08:41:00,50.1,50.0,30.09,NNE,29,0.0,0.0,98,0.00,,,0.00,weatherlink.com 1.10,2013-10-12 12:41:00,
2013-10-12 08:56:00,50.8,51.0,30.10,NNE,29,0.0,0.0,99,0.00,,,0.00,weatherlink.com 1.10,2013-10-12 12:56:00,
2013-10-12 09:11:00,52.2,52.0,30.10,NNE,29,0.0,0.0,99,0.00,,,0.00,weatherlink.com 1.10,2013-10-12 13:11:00,
2013-10-12 09:26:00,53.7,54.0,30.10,NNE,29,0.0,0.0,99,0.00,,,0.00,weatherlink.com 1.10,2013-10-12 13:26:00,
2013-10-12 09:41:00,55.4,55.0,30.10,NNE,28,0.0,0.0,99,0.00,,,0.00,weatherlink.com 1.10,2013-10-12 13:41:00,
2013-10-12 09:56:00,56.7,57.0,30.10,NNE,28,0.0,0.0,99,0.00,,,0.00,weatherlink.com 1.10,2013-10-12 13:56:00,
2013-10-12 10:11:00,58.1,58.0,30.10,NNE,28,0.0,0.0,99,0.00,,,0.00,weatherlink.com 1.10,2013-10-12 14:11:00,
2013-10-12 10:26:00,59.7,58.0,30.10,NNW,338,0.0,0.0,95,0.00,,,0.00,weatherlink.com 1.10,2013-10-12 14:26:00,
2013-10-12 10:41:00,62.7,60.0,30.10,NNW,338,0.0,0.0,89,0.00,,,0.00,weatherlink.com 1.10,2013-10-12 14:41:00,
2013-10-12 10:56:00,65.9,60.0,30.09,East,94,0.0,1.0,82,0.00,,,0.00,weatherlink.com 1.10,2013-10-12 14:56:00,
2013-10-12 11:12:00,67.8,60.0,30.09,East,87,0.0,1.0,77,0.00,,,0.00,weatherlink.com 1.10,2013-10-12 15:12:00,
2013-10-12 11:27:00,69.0,61.0,30.09,East,87,0.0,1.0,76,0.00,,,0.00,weatherlink.com 1.10,2013-10-12 15:27:00,
2013-10-12 11:42:00,70.9,62.0,30.09,East,87,0.0,0.0,73,0.00,,,0.00,weatherlink.com 1.10,2013-10-12 15:42:00,
2013-10-12 11:57:00,71.6,62.0,30.10,SW,229,0.0,1.0,71,0.00,,,0.00,weatherlink.com 1.10,2013-10-12 15:57:00,
2013-10-12 12:12:00,72.9,61.0,30.10,East,89,0.0,1.0,67,0.00,,,0.00,weatherlink.com 1.10,2013-10-12 16:12:00,
2013-10-12 12:27:00,74.2,61.0,30.09,NNE,24,0.0,1.0,64,0.00,,,0.00,weatherlink.com 1.10,2013-10-12 16:27:00,
2013-10-12 12:42:00,75.4,63.0,30.09,ESE,111,1.0,1.0,65,0.00,,,0.00,weatherlink.com 1.10,2013-10-12 16:42:00,
2013-10-12 12:57:00,76.5,63.0,30.09,WNW,287,0.0,1.0,63,0.00,,,0.00,weatherlink.com 1.10,2013-10-12 16:57:00,
2013-10-12 13:13:00,77.2,61.0,30.09,NNE,26,0.0,2.0,58,0.00,,,0.00,weatherlink.com 1.10,2013-10-12 17:13:00,
2013-10-12 13:27:00,77.8,61.0,30.09,North,11,0.0,1.0,57,0.00,,,0.00,weatherlink.com 1.10,2013-10-12 17:27:00,
2013-10-12 13:42:00,77.9,61.0,30.08,ESE,114,0.0,2.0,56,0.00,,,0.00,weatherlink.com 1.10,2013-10-12 17:42:00,
2013-10-12 13:57:00,78.6,62.0,30.08,ESE,114,0.0,1.0,57,0.00,,,0.00,weatherlink.com 1.10,2013-10-12 17:57:00,
2013-10-12 14:12:00,79.5,62.0,30.08,ESE,104,0.0,1.0,56,0.00,,,0.00,weatherlink.com 1.10,2013-10-12 18:12:00,
2013-10-12 14:27:00,79.2,57.0,30.07,East,88,1.0,2.0,46,0.00,,,0.00,weatherlink.com 1.10,2013-10-12 18:27:00,
2013-10-12 14:42:00,78.7,56.0,30.07,West,269,0.0,2.0,46,0.00,,,0.00,weatherlink.com 1.10,2013-10-12 18:42:00,
2013-10-12 14:57:00,79.3,57.0,30.06,WNW,288,0.0,4.0,46,0.00,,,0.00,weatherlink.com 1.10,2013-10-12 18:57:00,
2013-10-12 15:12:00,78.8,59.0,30.06,ENE,78,0.0,2.0,50,0.00,,,0.00,weatherlink.com 1.10,2013-10-12 19:12:00,
2013-10-12 15:27:00,79.1,60.0,30.07,WSW,250,0.0,1.0,52,0.00,,,0.00,weatherlink.com 1.10,2013-10-12 19:27:00,
2013-10-12 15:42:00,78.8,59.0,30.07,South,172,0.0,2.0,50,0.00,,,0.00,weatherlink.com 1.10,2013-10-12 19:42:00,
2013-10-12 15:57:00,79.0,58.0,30.07,ESE,116,0.0,3.0,49,0.00,,,0.00,weatherlink.com 1.10,2013-10-12 19:57:00,
2013-10-12 16:12:00,77.3,59.0,30.07,East,88,0.0,3.0,54,0.00,,,0.00,weatherlink.com 1.10,2013-10-12 20:12:00,
2013-10-12 16:27:00,76.4,61.0,30.07,SSE,150,0.0,1.0,60,0.00,,,0.00,weatherlink.com 1.10,2013-10-12 20:27:00,
2013-10-12 16:43:00,78.4,61.0,30.06,ENE,76,0.0,2.0,55,0.00,,,0.00,weatherlink.com 1.10,2013-10-12 20:43:00,
2013-10-12 16:57:00,80.0,60.0,30.06,East,90,0.0,2.0,51,0.00,,,0.00,weatherlink.com 1.10,2013-10-12 20:57:00,
2013-10-12 17:12:00,78.8,60.0,30.06,ESE,119,0.0,2.0,52,0.00,,,0.00,weatherlink.com 1.10,2013-10-12 21:12:00,
2013-10-12 17:27:00,78.9,60.0,30.06,ENE,64,0.0,1.0,52,0.00,,,0.00,weatherlink.com 1.10,2013-10-12 21:27:00,
2013-10-12 17:42:00,78.4,59.0,30.07,East,96,0.0,2.0,52,0.00,,,0.00,weatherlink.com 1.10,2013-10-12 21:42:00,
2013-10-12 17:59:00,77.1,61.0,30.07,NE,47,0.0,1.0,58,0.00,,,0.00,weatherlink.com 1.10,2013-10-12 21:59:00,
2013-10-12 18:12:00,75.8,62.0,30.07,East,91,0.0,0.0,63,0.00,,,0.00,weatherlink.com 1.10,2013-10-12 22:12:00,
2013-10-12 18:27:00,74.3,62.0,30.07,East,91,0.0,0.0,66,0.00,,,0.00,weatherlink.com 1.10,2013-10-12 22:27:00,
2013-10-12 18:42:00,72.2,63.0,30.07,East,91,0.0,0.0,72,0.00,,,0.00,weatherlink.com 1.10,2013-10-12 22:42:00,
2013-10-12 18:57:00,70.1,63.0,30.07,East,91,0.0,0.0,77,0.00,,,0.00,weatherlink.com 1.10,2013-10-12 22:57:00,
2013-10-12 19:12:00,68.2,62.0,30.07,East,91,0.0,0.0,80,0.00,,,0.00,weatherlink.com 1.10,2013-10-12 23:12:00,
2013-10-12 19:27:00,66.7,61.0,30.07,East,91,0.0,0.0,83,0.00,,,0.00,weatherlink.com 1.10,2013-10-12 23:27:00,
2013-10-12 19:42:00,65.6,61.0,30.06,East,91,0.0,0.0,85,0.00,,,0.00,weatherlink.com 1.10,2013-10-12 23:42:00,
2013-10-12 19:57:00,64.9,61.0,30.06,East,91,0.0,0.0,87,0.00,,,0.00,weatherlink.com 1.10,2013-10-12 23:57:00,
2013-10-12 20:12:00,64.2,61.0,30.06,East,91,0.0,0.0,88,0.00,,,0.00,weatherlink.com 1.10,2013-10-13 00:12:00,
2013-10-12 20:27:00,63.5,61.0,30.07,East,91,0.0,0.0,90,0.00,,,0.00,weatherlink.com 1.10,2013-10-13 00:27:00,
2013-10-12 20:42:00,62.5,60.0,30.07,East,91,0.0,0.0,91,0.00,,,0.00,weatherlink.com 1.10,2013-10-13 00:42:00,
2013-10-12 20:57:00,61.6,59.0,30.07,East,91,0.0,0.0,92,0.00,,,0.00,weatherlink.com 1.10,2013-10-13 00:57:00,
2013-10-12 21:12:00,60.7,59.0,30.07,East,91,0.0,0.0,93,0.00,,,0.00,weatherlink.com 1.10,2013-10-13 01:12:00,
2013-10-12 21:27:00,60.0,58.0,30.08,East,91,0.0,0.0,94,0.00,,,0.00,weatherlink.com 1.10,2013-10-13 01:27:00,
2013-10-12 21:43:00,59.4,58.0,30.09,East,91,0.0,0.0,95,0.00,,,0.00,weatherlink.com 1.10,2013-10-13 01:43:00,
2013-10-12 21:57:00,59.0,58.0,30.09,East,91,0.0,0.0,95,0.00,,,0.00,weatherlink.com 1.10,2013-10-13 01:57:00,
2013-10-12 22:12:00,58.5,57.0,30.10,East,91,0.0,0.0,95,0.00,,,0.00,weatherlink.com 1.10,2013-10-13 02:12:00,
2013-10-12 22:27:00,58.1,57.0,30.10,East,91,0.0,0.0,96,0.00,,,0.00,weatherlink.com 1.10,2013-10-13 02:27:00,
2013-10-12 22:43:00,57.7,57.0,30.11,East,91,0.0,0.0,96,0.00,,,0.00,weatherlink.com 1.10,2013-10-13 02:43:00,
2013-10-12 22:58:00,57.5,56.0,30.12,East,91,0.0,0.0,96,0.00,,,0.00,weatherlink.com 1.10,2013-10-13 02:58:00,
2013-10-12 23:13:00,57.4,56.0,30.12,East,91,0.0,0.0,96,0.00,,,0.00,weatherlink.com 1.10,2013-10-13 03:13:00,
2013-10-12 23:28:00,57.0,56.0,30.12,East,91,0.0,0.0,96,0.00,,,0.00,weatherlink.com 1.10,2013-10-13 03:28:00,
2013-10-12 23:43:00,56.7,56.0,30.13,East,91,0.0,0.0,96,0.00,,,0.00,weatherlink.com 1.10,2013-10-13 03:43:00,
2013-10-12 23:58:00,56.5,55.0,30.13,East,91,0.0,0.0,96,0.00,,,0.00,weatherlink.com 1.10,2013-10-13 03:58:00,